• en France
  • Liste des pays
  • À 7 jours
  • Température de l'eau
  • Carte satellitaire
  • Carte météo
  • Widgets météo
  • user-avatar
    Se connecter

    Météo par heure à Kranevo

    Ce jour, 17 Janvier, Mercredi

    Heure Température Précipitation Vent Pression Humidité
    00:00 -1°C° 0 mm 4 m/s 752 mmHg 93%
    01:00 0°C° 0 mm 5 m/s 752 mmHg 93%
    02:00 0°C° 0 mm 5 m/s 751 mmHg 93%
    03:00 0°C° 0 mm 5 m/s 751 mmHg 93%
    04:00 0°C° 0 mm 5 m/s 750 mmHg 92%
    05:00 +1°C° 0 mm 5 m/s 750 mmHg 91%
    06:00 +1°C° 0 mm 5 m/s 749 mmHg 89%
    07:00 +1°C° 0 mm 5 m/s 749 mmHg 88%
    08:00 +1°C° 0 mm 5 m/s 749 mmHg 86%
    09:00 +2°C° 0 mm 5 m/s 748 mmHg 87%
    10:00 +3°C° 0 mm 5 m/s 748 mmHg 88%
    11:00 +5°C° 0 mm 5 m/s 748 mmHg 88%
    12:00 +5°C° 0 mm 5 m/s 746 mmHg 86%
    13:00 +5°C° 0 mm 6 m/s 745 mmHg 84%
    14:00 +7°C° 0 mm 6 m/s 744 mmHg 81%
    15:00 +6°C° 0 mm 7 m/s 743 mmHg 82%
    16:00 +6°C° 0 mm 7 m/s 742 mmHg 82%
    17:00 +6°C° 0 mm 8 m/s 741 mmHg 82%
    18:00 +6°C° 0,1 mm 9 m/s 740 mmHg 83%
    19:00 +7°C° 0,1 mm 10 m/s 739 mmHg 84%
    20:00 +7°C° 0,1 mm 11 m/s 738 mmHg 84%
    21:00 +7°C° 0,8 mm 10 m/s 738 mmHg 85%
    22:00 +7°C° 0,8 mm 10 m/s 737 mmHg 85%
    23:00 +6°C° 0,8 mm 9 m/s 737 mmHg 85%

    Demain, 18 Janvier, Jeudi

    Heure Température Précipitation Vent Pression Humidité
    00:00 +5°C° 0,4 mm 10 m/s 737 mmHg 84%
    01:00 +3°C° 0,4 mm 11 m/s 737 mmHg 83%
    02:00 +1°C° 0,4 mm 11 m/s 738 mmHg 82%
    03:00 +1°C° 0,2 mm 11 m/s 739 mmHg 82%
    04:00 +1°C° 0,2 mm 11 m/s 739 mmHg 81%
    05:00 -1°C° 0,2 mm 11 m/s 740 mmHg 81%
    06:00 0°C° 0,2 mm 10 m/s 741 mmHg 81%
    07:00 0°C° 0,2 mm 10 m/s 742 mmHg 81%
    08:00 0°C° 0,2 mm 9 m/s 743 mmHg 81%
    09:00 0°C° 0 mm 10 m/s 744 mmHg 76%
    10:00 +1°C° 0 mm 10 m/s 746 mmHg 71%
    11:00 +1°C° 0 mm 11 m/s 747 mmHg 65%
    12:00 +1°C° 0 mm 11 m/s 747 mmHg 63%
    13:00 +1°C° 0 mm 11 m/s 748 mmHg 60%
    14:00 +2°C° 0 mm 11 m/s 749 mmHg 58%
    15:00 +1°C° 0 mm 10 m/s 750 mmHg 59%
    16:00 +1°C° 0 mm 10 m/s 750 mmHg 61%
    17:00 0°C° 0 mm 9 m/s 751 mmHg 62%
    18:00 0°C° 0 mm 9 m/s 752 mmHg 64%
    19:00 -1°C° 0 mm 9 m/s 753 mmHg 67%
    20:00 -1°C° 0 mm 9 m/s 754 mmHg 69%
    21:00 -1°C° 0 mm 8 m/s 754 mmHg 71%
    22:00 -2°C° 0 mm 7 m/s 755 mmHg 73%
    23:00 -2°C° 0 mm 7 m/s 755 mmHg 75%

    Après-demain, 19 Janvier, Vendredi

    Heure Température Précipitation Vent Pression Humidité
    00:00 -2°C° 0 mm 6 m/s 755 mmHg 75%
    01:00 -1°C° 0 mm 5 m/s 755 mmHg 75%
    02:00 -1°C° 0 mm 4 m/s 755 mmHg 75%
    03:00 -1°C° 0 mm 5 m/s 754 mmHg 73%
    04:00 -1°C° 0 mm 5 m/s 754 mmHg 71%
    05:00 -2°C° 0 mm 6 m/s 754 mmHg 68%
    06:00 -1°C° 0 mm 7 m/s 754 mmHg 64%
    07:00 0°C° 0 mm 7 m/s 754 mmHg 60%
    08:00 0°C° 0 mm 8 m/s 754 mmHg 56%
    09:00 +2°C° 0 mm 8 m/s 754 mmHg 53%
    10:00 +4°C° 0 mm 8 m/s 754 mmHg 50%
    11:00 +6°C° 0 mm 8 m/s 754 mmHg 47%
    12:00 +6°C° 0 mm 8 m/s 753 mmHg 46%
    13:00 +8°C° 0 mm 7 m/s 753 mmHg 46%
    14:00 +9°C° 0 mm 7 m/s 753 mmHg 46%
    15:00 +8°C° 0 mm 7 m/s 753 mmHg 50%
    16:00 +7°C° 0 mm 6 m/s 753 mmHg 55%
    17:00 +6°C° 0 mm 5 m/s 753 mmHg 59%
    18:00 +5°C° 0 mm 5 m/s 753 mmHg 60%
    19:00 +5°C° 0 mm 5 m/s 753 mmHg 61%
    20:00 +5°C° 0 mm 5 m/s 753 mmHg 62%
    21:00 +5°C° 0 mm 5 m/s 753 mmHg 64%
    22:00 +3°C° 0 mm 5 m/s 753 mmHg 66%
    23:00 +3°C° 0 mm 5 m/s 753 mmHg 68%

    20 Janvier, Samedi

    Heure Température Précipitation Vent Pression Humidité
    00:00 +3°C° 0 mm 5 m/s 753 mmHg 67%
    01:00 +4°C° 0 mm 4 m/s 753 mmHg 66%
    02:00 +3°C° 0 mm 4 m/s 753 mmHg 66%
    03:00 +3°C° 0 mm 4 m/s 753 mmHg 66%
    04:00 +3°C° 0 mm 4 m/s 753 mmHg 67%
    05:00 +3°C° 0 mm 4 m/s 753 mmHg 67%
    06:00 +3°C° 0 mm 4 m/s 753 mmHg 72%
    07:00 +3°C° 0 mm 5 m/s 753 mmHg 77%
    08:00 +3°C° 0 mm 5 m/s 753 mmHg 82%
    09:00 +4°C° 0 mm 6 m/s 752 mmHg 82%
    10:00 +6°C° 0 mm 7 m/s 752 mmHg 82%
    11:00 +9°C° 0 mm 8 m/s 752 mmHg 81%
    12:00 +10°C° 0 mm 8 m/s 751 mmHg 79%
    13:00 +10°C° 0 mm 8 m/s 751 mmHg 77%
    14:00 +11°C° 0 mm 9 m/s 750 mmHg 75%
    15:00 +11°C° 0 mm 8 m/s 750 mmHg 76%
    16:00 +10°C° 0 mm 8 m/s 749 mmHg 78%
    17:00 +10°C° 0 mm 8 m/s 749 mmHg 79%
    18:00 +10°C° 0 mm 9 m/s 749 mmHg 80%
    19:00 +10°C° 0 mm 9 m/s 749 mmHg 81%
    20:00 +8°C° 0 mm 10 m/s 749 mmHg 82%
    21:00 +9°C° 0 mm 10 m/s 749 mmHg 81%
    22:00 +9°C° 0 mm 10 m/s 748 mmHg 80%
    23:00 +9°C° 0 mm 11 m/s 748 mmHg 80%

    21 Janvier, Dimanche

    Heure Température Précipitation Vent Pression Humidité
    00:00 +9°C° 0 mm 10 m/s 748 mmHg 80%
    01:00 +9°C° 0 mm 10 m/s 748 mmHg 80%
    02:00 +8°C° 0 mm 10 m/s 747 mmHg 80%
    03:00 +8°C° 0 mm 9 m/s 747 mmHg 81%
    04:00 +8°C° 0 mm 9 m/s 746 mmHg 82%
    05:00 +8°C° 0 mm 9 m/s 746 mmHg 82%
    06:00 +10°C° 0 mm 9 m/s 746 mmHg 82%
    07:00 +10°C° 0 mm 9 m/s 746 mmHg 81%
    08:00 +10°C° 0 mm 9 m/s 745 mmHg 80%
    09:00 +10°C° 0,1 mm 9 m/s 745 mmHg 80%
    10:00 +10°C° 0,1 mm 9 m/s 745 mmHg 80%
    11:00 +10°C° 0,1 mm 9 m/s 745 mmHg 80%
    12:00 +10°C° 1 mm 9 m/s 744 mmHg 81%
    13:00 +8°C° 1 mm 9 m/s 744 mmHg 83%
    14:00 +8°C° 1 mm 9 m/s 743 mmHg 85%
    15:00 +7°C° 2,1 mm 9 m/s 743 mmHg 86%
    16:00 +6°C° 2,1 mm 8 m/s 743 mmHg 87%
    17:00 +5°C° 2,1 mm 8 m/s 742 mmHg 89%
    18:00 +5°C° 1,3 mm 8 m/s 742 mmHg 89%
    19:00 +4°C° 1,3 mm 8 m/s 742 mmHg 89%
    20:00 +3°C° 1,3 mm 9 m/s 742 mmHg 89%
    21:00 +1°C° 0 mm 9 m/s 743 mmHg 87%
    22:00 0°C° 0 mm 9 m/s 743 mmHg 86%
    23:00 -1°C° 0 mm 9 m/s 743 mmHg 85%

    22 Janvier, Lundi

    Heure Température Précipitation Vent Pression Humidité
    00:00 -3°C° 0 mm 9 m/s 744 mmHg 84%
    01:00 -3°C° 0 mm 10 m/s 744 mmHg 84%
    02:00 -4°C° 0 mm 10 m/s 744 mmHg 83%
    03:00 -4°C° 0 mm 10 m/s 744 mmHg 81%
    04:00 -4°C° 0 mm 11 m/s 744 mmHg 79%
    05:00 -5°C° 0 mm 12 m/s 744 mmHg 77%
    06:00 -5°C° 0,4 mm 12 m/s 745 mmHg 78%
    07:00 -6°C° 0,4 mm 12 m/s 746 mmHg 80%
    08:00 -6°C° 0,4 mm 12 m/s 747 mmHg 81%
    09:00 -6°C° 0,5 mm 12 m/s 747 mmHg 82%
    10:00 -6°C° 0,5 mm 12 m/s 748 mmHg 82%
    11:00 -6°C° 0,5 mm 11 m/s 749 mmHg 83%
    12:00 -4°C° 0,3 mm 11 m/s 749 mmHg 83%
    13:00 -4°C° 0,3 mm 11 m/s 750 mmHg 82%
    14:00 -3°C° 0,3 mm 11 m/s 750 mmHg 82%
    15:00 -3°C° 0,2 mm 10 m/s 751 mmHg 82%
    16:00 -3°C° 0,2 mm 9 m/s 751 mmHg 81%
    17:00 -2°C° 0,2 mm 8 m/s 752 mmHg 81%
    18:00 -2°C° 0,1 mm 8 m/s 753 mmHg 80%
    19:00 -2°C° 0,1 mm 8 m/s 753 mmHg 79%
    20:00 -4°C° 0,1 mm 8 m/s 753 mmHg 79%
    21:00 -4°C° 0,1 mm 8 m/s 754 mmHg 79%
    22:00 -4°C° 0,1 mm 9 m/s 754 mmHg 79%
    23:00 -4°C° 0,1 mm 9 m/s 755 mmHg 79%
    Voir plus